Year,Month,Day,Hour,Minute,Value (Times are PST for temperature in C)
2012,08,17,00,00,20.10
2012,08,17,00,01,20.10
2012,08,17,00,02,20.10
2012,08,17,00,03,20.10
2012,08,17,00,04,20.10
2012,08,17,00,05,20.00
2012,08,17,00,06,20.00
2012,08,17,00,07,20.00
2012,08,17,00,08,20.00
2012,08,17,00,09,20.00
2012,08,17,00,10,20.00
2012,08,17,00,11,20.00
2012,08,17,00,12,20.00
2012,08,17,00,13,19.90
2012,08,17,00,14,20.00
2012,08,17,00,15,20.00
2012,08,17,00,16,19.90
2012,08,17,00,17,19.90
2012,08,17,00,18,19.90
2012,08,17,00,19,19.90
2012,08,17,00,20,19.90
2012,08,17,00,21,20.00
2012,08,17,00,22,20.00
2012,08,17,00,23,20.00
2012,08,17,00,24,20.00
2012,08,17,00,25,20.00
2012,08,17,00,26,20.00
2012,08,17,00,27,20.00
2012,08,17,00,28,20.00
2012,08,17,00,29,20.00
2012,08,17,00,30,20.00
2012,08,17,00,31,20.00
2012,08,17,00,32,20.00
2012,08,17,00,33,20.00
2012,08,17,00,34,20.00
2012,08,17,00,35,20.00
2012,08,17,00,36,20.00
2012,08,17,00,37,20.00
2012,08,17,00,38,20.00
2012,08,17,00,39,19.90
2012,08,17,00,40,19.90
2012,08,17,00,41,19.90
2012,08,17,00,42,19.90
2012,08,17,00,43,19.90
2012,08,17,00,44,19.90
2012,08,17,00,45,19.90
2012,08,17,00,46,19.80
2012,08,17,00,47,19.80
2012,08,17,00,48,19.80
2012,08,17,00,49,19.80
2012,08,17,00,50,19.80
2012,08,17,00,51,19.80
2012,08,17,00,52,19.70
2012,08,17,00,53,19.70
2012,08,17,00,54,19.70
2012,08,17,00,55,19.70
2012,08,17,00,56,19.70
2012,08,17,00,57,19.70
2012,08,17,00,58,19.70
2012,08,17,00,59,19.70
2012,08,17,01,00,19.70
2012,08,17,01,01,19.70
2012,08,17,01,02,19.60
2012,08,17,01,03,19.60
2012,08,17,01,04,19.60
2012,08,17,01,05,19.60
2012,08,17,01,06,19.60
2012,08,17,01,07,19.50
2012,08,17,01,08,19.50
2012,08,17,01,09,19.40
2012,08,17,01,10,19.40
2012,08,17,01,11,19.40
2012,08,17,01,12,19.30
2012,08,17,01,13,19.30
2012,08,17,01,14,19.30
2012,08,17,01,15,19.30
2012,08,17,01,16,19.30
2012,08,17,01,17,19.20
2012,08,17,01,18,19.20
2012,08,17,01,19,19.20
2012,08,17,01,20,19.20
2012,08,17,01,21,19.10
2012,08,17,01,22,19.10
2012,08,17,01,23,19.10
2012,08,17,01,24,19.00
2012,08,17,01,25,19.00
2012,08,17,01,26,19.00
2012,08,17,01,27,18.90
2012,08,17,01,28,18.90
2012,08,17,01,29,18.90
2012,08,17,01,30,18.90
2012,08,17,01,31,18.90
2012,08,17,01,32,18.90
2012,08,17,01,33,18.80
2012,08,17,01,34,18.80
2012,08,17,01,35,18.80
2012,08,17,01,36,18.80
2012,08,17,01,37,18.80
2012,08,17,01,38,18.70
2012,08,17,01,39,18.70
2012,08,17,01,40,18.70
2012,08,17,01,41,18.70
2012,08,17,01,42,18.70
2012,08,17,01,43,18.60
2012,08,17,01,44,18.60
2012,08,17,01,45,18.60
2012,08,17,01,46,18.60
2012,08,17,01,47,18.60
2012,08,17,01,48,18.50
2012,08,17,01,49,18.50
2012,08,17,01,50,18.50
2012,08,17,01,51,18.50
2012,08,17,01,52,18.40
2012,08,17,01,53,18.40
2012,08,17,01,54,18.40
2012,08,17,01,55,18.40
2012,08,17,01,56,18.40
2012,08,17,01,57,18.50
2012,08,17,01,58,18.50
2012,08,17,01,59,18.50
2012,08,17,02,00,18.50
2012,08,17,02,01,18.50
2012,08,17,02,02,18.50
2012,08,17,02,03,18.50
2012,08,17,02,04,18.50
2012,08,17,02,05,18.50
2012,08,17,02,06,18.40
2012,08,17,02,07,18.40
2012,08,17,02,08,18.40
2012,08,17,02,09,18.40
2012,08,17,02,10,18.40
2012,08,17,02,11,18.40
2012,08,17,02,12,18.40
2012,08,17,02,13,18.30
2012,08,17,02,14,18.30
2012,08,17,02,15,18.30
2012,08,17,02,16,18.30
2012,08,17,02,17,18.30
2012,08,17,02,18,18.30
2012,08,17,02,19,18.30
2012,08,17,02,20,18.20
2012,08,17,02,21,18.20
2012,08,17,02,22,18.20
2012,08,17,02,23,18.20
2012,08,17,02,24,18.20
2012,08,17,02,25,18.20
2012,08,17,02,26,18.10
2012,08,17,02,27,18.10
2012,08,17,02,28,18.10
2012,08,17,02,29,18.00
2012,08,17,02,30,18.00
2012,08,17,02,31,18.00
2012,08,17,02,32,17.90
2012,08,17,02,33,17.90
2012,08,17,02,34,17.90
2012,08,17,02,35,17.90
2012,08,17,02,36,17.90
2012,08,17,02,37,17.90
2012,08,17,02,38,17.90
2012,08,17,02,39,17.90
2012,08,17,02,40,17.90
2012,08,17,02,41,17.90
2012,08,17,02,42,18.00
2012,08,17,02,43,18.00
2012,08,17,02,44,18.00
2012,08,17,02,45,18.10
2012,08,17,02,46,18.10
2012,08,17,02,47,18.10
2012,08,17,02,48,18.10
2012,08,17,02,49,18.10
2012,08,17,02,50,18.10
2012,08,17,02,51,18.00
2012,08,17,02,52,18.00
2012,08,17,02,53,18.00
2012,08,17,02,54,18.00
2012,08,17,02,55,18.00
2012,08,17,02,56,18.00
2012,08,17,02,57,18.00
2012,08,17,02,58,18.10
2012,08,17,02,59,18.10
2012,08,17,03,00,18.10
2012,08,17,03,01,18.10
2012,08,17,03,02,18.10
2012,08,17,03,03,18.10
2012,08,17,03,04,18.10
2012,08,17,03,05,18.10
2012,08,17,03,06,18.10
2012,08,17,03,07,18.10
2012,08,17,03,08,18.10
2012,08,17,03,09,18.00
2012,08,17,03,10,18.00
2012,08,17,03,11,17.90
2012,08,17,03,12,17.90
2012,08,17,03,13,17.90
2012,08,17,03,14,17.80
2012,08,17,03,15,17.80
2012,08,17,03,16,17.80
2012,08,17,03,17,17.80
2012,08,17,03,18,17.80
2012,08,17,03,19,17.80
2012,08,17,03,20,17.80
2012,08,17,03,21,17.80
2012,08,17,03,22,17.80
2012,08,17,03,23,17.90
2012,08,17,03,24,17.90
2012,08,17,03,25,18.00
2012,08,17,03,26,18.00
2012,08,17,03,27,18.00
2012,08,17,03,28,18.00
2012,08,17,03,29,18.00
2012,08,17,03,30,18.00
2012,08,17,03,31,18.00
2012,08,17,03,32,18.00
2012,08,17,03,33,18.00
2012,08,17,03,34,17.90
2012,08,17,03,35,17.90
2012,08,17,03,36,17.90
2012,08,17,03,37,17.90
2012,08,17,03,38,17.90
2012,08,17,03,39,17.80
2012,08,17,03,40,17.80
2012,08,17,03,41,17.80
2012,08,17,03,42,17.80
2012,08,17,03,43,17.80
2012,08,17,03,44,17.80
2012,08,17,03,45,17.80
2012,08,17,03,46,17.80
2012,08,17,03,47,17.80
2012,08,17,03,48,17.70
2012,08,17,03,49,17.70
2012,08,17,03,50,17.70
2012,08,17,03,51,17.70
2012,08,17,03,52,17.70
2012,08,17,03,53,17.70
2012,08,17,03,54,17.60
2012,08,17,03,55,17.60
2012,08,17,03,56,17.60
2012,08,17,03,57,17.60
2012,08,17,03,58,17.60
2012,08,17,03,59,17.60
2012,08,17,04,00,17.50
2012,08,17,04,01,17.50
2012,08,17,04,02,17.50
2012,08,17,04,03,17.50
2012,08,17,04,04,17.50
2012,08,17,04,05,17.50
2012,08,17,04,06,17.40
2012,08,17,04,07,17.40
2012,08,17,04,08,17.40
2012,08,17,04,09,17.30
2012,08,17,04,10,17.30
2012,08,17,04,11,17.30
2012,08,17,04,12,17.30
2012,08,17,04,13,17.20
2012,08,17,04,14,17.20
2012,08,17,04,15,17.20
2012,08,17,04,16,17.20
2012,08,17,04,17,17.20
2012,08,17,04,18,17.20
2012,08,17,04,19,17.20
2012,08,17,04,20,17.10
2012,08,17,04,21,17.10
2012,08,17,04,22,17.10
2012,08,17,04,23,17.00
2012,08,17,04,24,17.00
2012,08,17,04,25,17.00
2012,08,17,04,26,16.90
2012,08,17,04,27,16.90
2012,08,17,04,28,16.80
2012,08,17,04,29,16.80
2012,08,17,04,30,16.80
2012,08,17,04,31,16.80
2012,08,17,04,32,16.70
2012,08,17,04,33,16.70
2012,08,17,04,34,16.70
2012,08,17,04,35,16.70
2012,08,17,04,36,16.80
2012,08,17,04,37,16.80
2012,08,17,04,38,16.80
2012,08,17,04,39,16.90
2012,08,17,04,40,16.90
2012,08,17,04,41,16.90
2012,08,17,04,42,16.90
2012,08,17,04,43,16.90
2012,08,17,04,44,16.90
2012,08,17,04,45,16.90
2012,08,17,04,46,17.00
2012,08,17,04,47,17.00
2012,08,17,04,48,17.00
2012,08,17,04,49,17.10
2012,08,17,04,50,17.10
2012,08,17,04,51,17.10
2012,08,17,04,52,17.10
2012,08,17,04,53,17.00
2012,08,17,04,54,17.00
2012,08,17,04,55,16.90
2012,08,17,04,56,16.90
2012,08,17,04,57,16.80
2012,08,17,04,58,16.80
2012,08,17,04,59,16.80
2012,08,17,05,00,16.80
2012,08,17,05,01,16.70
2012,08,17,05,02,16.70
2012,08,17,05,03,16.70
2012,08,17,05,04,16.60
2012,08,17,05,05,16.60
2012,08,17,05,06,16.60
2012,08,17,05,07,16.60
2012,08,17,05,08,16.60
2012,08,17,05,09,16.50
2012,08,17,05,10,16.50
2012,08,17,05,11,16.50
2012,08,17,05,12,16.50
2012,08,17,05,13,16.50
2012,08,17,05,14,16.50
2012,08,17,05,15,16.50
2012,08,17,05,16,16.50
2012,08,17,05,17,16.50
2012,08,17,05,18,16.50
2012,08,17,05,19,16.50
2012,08,17,05,20,16.50
2012,08,17,05,21,16.50
2012,08,17,05,22,16.50
2012,08,17,05,23,16.50
2012,08,17,05,24,16.50
2012,08,17,05,25,16.50
2012,08,17,05,26,16.50
2012,08,17,05,27,16.50
2012,08,17,05,28,16.40
2012,08,17,05,29,16.40
2012,08,17,05,30,16.40
2012,08,17,05,31,16.40
2012,08,17,05,32,16.40
2012,08,17,05,33,16.30
2012,08,17,05,34,16.30
2012,08,17,05,35,16.30
2012,08,17,05,36,16.30
2012,08,17,05,37,16.30
2012,08,17,05,38,16.30
2012,08,17,05,39,16.30
2012,08,17,05,40,16.20
2012,08,17,05,41,16.20
2012,08,17,05,42,16.20
2012,08,17,05,43,16.20
2012,08,17,05,44,16.20
2012,08,17,05,45,16.20
2012,08,17,05,46,16.20
2012,08,17,05,47,16.20
2012,08,17,05,48,16.20
2012,08,17,05,49,16.20
2012,08,17,05,50,16.20
2012,08,17,05,51,16.20
2012,08,17,05,52,16.20
2012,08,17,05,53,16.20
2012,08,17,05,54,16.20
2012,08,17,05,55,16.20
2012,08,17,05,56,16.10
2012,08,17,05,57,16.10
2012,08,17,05,58,16.10
2012,08,17,05,59,16.10
2012,08,17,06,00,16.10
2012,08,17,06,01,16.10
2012,08,17,06,02,16.10
2012,08,17,06,03,16.10
2012,08,17,06,04,16.10
2012,08,17,06,05,16.10
2012,08,17,06,06,16.10
2012,08,17,06,07,16.10
2012,08,17,06,08,16.10
2012,08,17,06,09,16.10
2012,08,17,06,10,16.10
2012,08,17,06,11,16.10
2012,08,17,06,12,16.10
2012,08,17,06,13,16.10
2012,08,17,06,14,16.10
2012,08,17,06,15,16.10
2012,08,17,06,16,16.10
2012,08,17,06,17,16.00
2012,08,17,06,18,16.00
2012,08,17,06,19,16.00
2012,08,17,06,20,16.10
2012,08,17,06,21,16.10
2012,08,17,06,22,16.20
2012,08,17,06,23,16.20
2012,08,17,06,24,16.20
2012,08,17,06,25,16.10
2012,08,17,06,26,16.10
2012,08,17,06,27,16.20
2012,08,17,06,28,16.20
2012,08,17,06,29,16.30
2012,08,17,06,30,16.30
2012,08,17,06,31,16.40
2012,08,17,06,32,16.40
2012,08,17,06,33,16.40
2012,08,17,06,34,16.50
2012,08,17,06,35,16.50
2012,08,17,06,36,16.60
2012,08,17,06,37,16.60
2012,08,17,06,38,16.60
2012,08,17,06,39,16.60
2012,08,17,06,40,16.60
2012,08,17,06,41,16.60
2012,08,17,06,42,16.60
2012,08,17,06,43,16.50
2012,08,17,06,44,16.50
2012,08,17,06,45,16.40
2012,08,17,06,46,16.40
2012,08,17,06,47,16.30
2012,08,17,06,48,16.30
2012,08,17,06,49,16.20
2012,08,17,06,50,16.20
2012,08,17,06,51,16.10
2012,08,17,06,52,16.10
2012,08,17,06,53,16.00
2012,08,17,06,54,16.00
2012,08,17,06,55,15.90
2012,08,17,06,56,15.90
2012,08,17,06,57,15.90
2012,08,17,06,58,15.80
2012,08,17,06,59,15.80
2012,08,17,07,00,15.80
2012,08,17,07,01,15.70
2012,08,17,07,02,15.70
2012,08,17,07,03,15.70
2012,08,17,07,04,15.70
2012,08,17,07,05,15.70
2012,08,17,07,06,15.70
2012,08,17,07,07,15.60
2012,08,17,07,08,15.60
2012,08,17,07,09,15.60
2012,08,17,07,10,15.60
2012,08,17,07,11,15.60
2012,08,17,07,12,15.60
2012,08,17,07,13,15.60
2012,08,17,07,14,15.60
2012,08,17,07,15,15.60
2012,08,17,07,16,15.60
2012,08,17,07,17,15.60
2012,08,17,07,18,15.70
2012,08,17,07,19,15.70
2012,08,17,07,20,15.70
2012,08,17,07,21,15.70
2012,08,17,07,22,15.70
2012,08,17,07,23,15.70
2012,08,17,07,24,15.70
2012,08,17,07,25,15.70
2012,08,17,07,26,15.70
2012,08,17,07,27,15.70
2012,08,17,07,28,15.70
2012,08,17,07,29,15.70
2012,08,17,07,30,15.70
2012,08,17,07,31,15.70
2012,08,17,07,32,15.70
2012,08,17,07,33,15.80
2012,08,17,07,34,15.80
2012,08,17,07,35,15.80
2012,08,17,07,36,15.80
2012,08,17,07,37,15.90
2012,08,17,07,38,15.90
2012,08,17,07,39,16.00
2012,08,17,07,40,16.00
2012,08,17,07,41,16.00
2012,08,17,07,42,16.10
2012,08,17,07,43,16.10
2012,08,17,07,44,16.20
2012,08,17,07,45,16.20
2012,08,17,07,46,16.30
2012,08,17,07,47,16.30
2012,08,17,07,48,16.30
2012,08,17,07,49,16.40
2012,08,17,07,50,16.40
2012,08,17,07,51,16.50
2012,08,17,07,52,16.60
2012,08,17,07,53,16.60
2012,08,17,07,54,16.70
2012,08,17,07,55,16.80
2012,08,17,07,56,16.80
2012,08,17,07,57,17.00
2012,08,17,07,58,17.10
2012,08,17,07,59,17.20
2012,08,17,08,00,17.30
2012,08,17,08,01,17.40
2012,08,17,08,02,17.50
2012,08,17,08,03,17.60
2012,08,17,08,04,17.70
2012,08,17,08,05,17.90
2012,08,17,08,06,18.00
2012,08,17,08,07,18.20
2012,08,17,08,08,18.30
2012,08,17,08,09,18.40
2012,08,17,08,10,18.50
2012,08,17,08,11,18.50
2012,08,17,08,12,18.60
2012,08,17,08,13,18.60
2012,08,17,08,14,18.70
2012,08,17,08,15,18.80
2012,08,17,08,16,18.80
2012,08,17,08,17,18.90
2012,08,17,08,18,19.00
2012,08,17,08,19,19.00
2012,08,17,08,20,19.10
2012,08,17,08,21,19.10
2012,08,17,08,22,19.20
2012,08,17,08,23,19.20
2012,08,17,08,24,19.30
2012,08,17,08,25,19.30
2012,08,17,08,26,19.30
2012,08,17,08,27,19.40
2012,08,17,08,28,19.40
2012,08,17,08,29,19.50
2012,08,17,08,30,19.50
2012,08,17,08,31,19.60
2012,08,17,08,32,19.70
2012,08,17,08,33,19.70
2012,08,17,08,34,19.80
2012,08,17,08,35,19.90
2012,08,17,08,36,20.00
2012,08,17,08,37,20.10
2012,08,17,08,38,20.20
2012,08,17,08,39,20.30
2012,08,17,08,40,20.50
2012,08,17,08,41,20.60
2012,08,17,08,42,20.70
2012,08,17,08,43,20.90
2012,08,17,08,44,21.00
2012,08,17,08,45,21.10
2012,08,17,08,46,21.20
2012,08,17,08,47,21.30
2012,08,17,08,48,21.50
2012,08,17,08,49,21.60
2012,08,17,08,50,21.70
2012,08,17,08,51,21.80
2012,08,17,08,52,21.90
2012,08,17,08,53,22.00
2012,08,17,08,54,22.20
2012,08,17,08,55,22.30
2012,08,17,08,56,22.40
2012,08,17,08,57,22.50
2012,08,17,08,58,22.60
2012,08,17,08,59,22.70
2012,08,17,09,00,22.80
2012,08,17,09,01,22.80
2012,08,17,09,02,22.90
2012,08,17,09,03,22.90
2012,08,17,09,04,23.00
2012,08,17,09,05,23.00
2012,08,17,09,06,23.00
2012,08,17,09,07,23.10
2012,08,17,09,08,23.10
2012,08,17,09,09,23.10
2012,08,17,09,10,23.10
2012,08,17,09,11,23.10
2012,08,17,09,12,23.10
2012,08,17,09,13,23.20
2012,08,17,09,14,23.20
2012,08,17,09,15,23.20
2012,08,17,09,16,23.20
2012,08,17,09,17,23.20
2012,08,17,09,18,23.20
2012,08,17,09,19,23.20
2012,08,17,09,20,23.30
2012,08,17,09,21,23.30
2012,08,17,09,22,23.30
2012,08,17,09,23,23.30
2012,08,17,09,24,23.30
2012,08,17,09,25,23.30
2012,08,17,09,26,23.30
2012,08,17,09,27,23.40
2012,08,17,09,28,23.40
2012,08,17,09,29,23.50
2012,08,17,09,30,23.50
2012,08,17,09,31,23.60
2012,08,17,09,32,23.60
2012,08,17,09,33,23.70
2012,08,17,09,34,23.70
2012,08,17,09,35,23.70
2012,08,17,09,36,23.70
2012,08,17,09,37,23.70
2012,08,17,09,38,23.70
2012,08,17,09,39,23.70
2012,08,17,09,40,23.70
2012,08,17,09,41,23.70
2012,08,17,09,42,23.70
2012,08,17,09,43,23.70
2012,08,17,09,44,23.80
2012,08,17,09,45,23.80
2012,08,17,09,46,23.80
2012,08,17,09,47,23.90
2012,08,17,09,48,24.00
2012,08,17,09,49,24.10
2012,08,17,09,50,24.20
2012,08,17,09,51,24.20
2012,08,17,09,52,24.30
2012,08,17,09,53,24.40
2012,08,17,09,54,24.50
2012,08,17,09,55,24.50
2012,08,17,09,56,24.60
2012,08,17,09,57,24.60
2012,08,17,09,58,24.60
2012,08,17,09,59,24.60
2012,08,17,10,00,24.60
2012,08,17,10,01,24.60
2012,08,17,10,02,24.60
2012,08,17,10,03,24.60
2012,08,17,10,04,24.60
2012,08,17,10,05,24.60
2012,08,17,10,06,24.70
2012,08,17,10,07,24.80
2012,08,17,10,08,24.90
2012,08,17,10,09,25.00
2012,08,17,10,10,25.00
2012,08,17,10,11,25.10
2012,08,17,10,12,25.10
2012,08,17,10,13,25.10
2012,08,17,10,14,25.10
2012,08,17,10,15,25.10
2012,08,17,10,16,25.20
2012,08,17,10,17,25.20
2012,08,17,10,18,25.30
2012,08,17,10,19,25.30
2012,08,17,10,20,25.30
2012,08,17,10,21,25.40
2012,08,17,10,22,25.30
2012,08,17,10,23,25.30
2012,08,17,10,24,25.30
2012,08,17,10,25,25.30
2012,08,17,10,26,25.30
2012,08,17,10,27,25.30
2012,08,17,10,28,25.30
2012,08,17,10,29,25.40
2012,08,17,10,30,25.40
2012,08,17,10,31,25.40
2012,08,17,10,32,25.40
2012,08,17,10,33,25.40
2012,08,17,10,34,25.40
2012,08,17,10,35,25.40
2012,08,17,10,36,25.30
2012,08,17,10,37,25.30
2012,08,17,10,38,25.20
2012,08,17,10,39,25.20
2012,08,17,10,40,25.20
2012,08,17,10,41,25.20
2012,08,17,10,42,25.20
2012,08,17,10,43,25.20
2012,08,17,10,44,25.20
2012,08,17,10,45,25.20
2012,08,17,10,46,25.20
2012,08,17,10,47,25.30
2012,08,17,10,48,25.40
2012,08,17,10,49,25.40
2012,08,17,10,50,25.40
2012,08,17,10,51,25.40
2012,08,17,10,52,25.50
2012,08,17,10,53,25.50
2012,08,17,10,54,25.60
2012,08,17,10,55,25.70
2012,08,17,10,56,25.80
2012,08,17,10,57,25.90
2012,08,17,10,58,25.90
2012,08,17,10,59,25.90
2012,08,17,11,00,26.00
2012,08,17,11,01,26.10
2012,08,17,11,02,26.20
2012,08,17,11,03,26.30
2012,08,17,11,04,26.30
2012,08,17,11,05,26.40
2012,08,17,11,06,26.40
2012,08,17,11,07,26.50
2012,08,17,11,08,26.50
2012,08,17,11,09,26.40
2012,08,17,11,10,26.40
2012,08,17,11,11,26.40
2012,08,17,11,12,26.40
2012,08,17,11,13,26.40
2012,08,17,11,14,26.40
2012,08,17,11,15,26.40
2012,08,17,11,16,26.30
2012,08,17,11,17,26.40
2012,08,17,11,18,26.40
2012,08,17,11,19,26.50
2012,08,17,11,20,26.60
2012,08,17,11,21,26.60
2012,08,17,11,22,26.50
2012,08,17,11,23,26.40
2012,08,17,11,24,26.30
2012,08,17,11,25,26.30
2012,08,17,11,26,26.40
2012,08,17,11,27,26.40
2012,08,17,11,28,26.40
2012,08,17,11,29,26.50
2012,08,17,11,30,26.60
2012,08,17,11,31,26.60
2012,08,17,11,32,26.70
2012,08,17,11,33,26.70
2012,08,17,11,34,26.70
2012,08,17,11,35,26.80
2012,08,17,11,36,26.90
2012,08,17,11,37,27.00
2012,08,17,11,38,27.00
2012,08,17,11,39,27.10
2012,08,17,11,40,27.20
2012,08,17,11,41,27.20
2012,08,17,11,42,27.20
2012,08,17,11,43,27.10
2012,08,17,11,44,27.10
2012,08,17,11,45,27.10
2012,08,17,11,46,27.00
2012,08,17,11,47,27.00
2012,08,17,11,48,27.10
2012,08,17,11,49,27.10
2012,08,17,11,50,27.10
2012,08,17,11,51,27.00
2012,08,17,11,52,27.00
2012,08,17,11,53,26.90
2012,08,17,11,54,26.90
2012,08,17,11,55,26.90
2012,08,17,11,56,27.00
2012,08,17,11,57,27.00
2012,08,17,11,58,27.10
2012,08,17,11,59,27.10
2012,08,17,12,00,27.10
2012,08,17,12,01,27.10
2012,08,17,12,02,27.20
2012,08,17,12,03,27.20
2012,08,17,12,04,27.20
2012,08,17,12,05,27.30
2012,08,17,12,06,27.40
2012,08,17,12,07,27.40
2012,08,17,12,08,27.40
2012,08,17,12,09,27.30
2012,08,17,12,10,27.40
2012,08,17,12,11,27.40
2012,08,17,12,12,27.50
2012,08,17,12,13,27.50
2012,08,17,12,14,27.70
2012,08,17,12,15,27.80
2012,08,17,12,16,27.90
2012,08,17,12,17,28.00
2012,08,17,12,18,28.10
2012,08,17,12,19,28.20
2012,08,17,12,20,28.30
2012,08,17,12,21,28.30
2012,08,17,12,22,28.30
2012,08,17,12,23,28.30
2012,08,17,12,24,28.30
2012,08,17,12,25,28.30
2012,08,17,12,26,28.30
2012,08,17,12,27,28.20
2012,08,17,12,28,28.00
2012,08,17,12,29,27.80
2012,08,17,12,30,27.60
2012,08,17,12,31,27.50
2012,08,17,12,32,27.40
2012,08,17,12,33,27.40
2012,08,17,12,34,27.30
2012,08,17,12,35,27.20
2012,08,17,12,36,27.10
2012,08,17,12,37,27.10
2012,08,17,12,38,26.90
2012,08,17,12,39,26.80
2012,08,17,12,40,26.60
2012,08,17,12,41,26.50
2012,08,17,12,42,26.30
2012,08,17,12,43,26.20
2012,08,17,12,44,26.10
2012,08,17,12,45,26.10
2012,08,17,12,46,26.10
2012,08,17,12,47,26.20
2012,08,17,12,48,26.30
2012,08,17,12,49,26.30
2012,08,17,12,50,26.30
2012,08,17,12,51,26.30
2012,08,17,12,52,26.30
2012,08,17,12,53,26.30
2012,08,17,12,54,26.40
2012,08,17,12,55,26.50
2012,08,17,12,56,26.50
2012,08,17,12,57,26.50
2012,08,17,12,58,26.60
2012,08,17,12,59,26.70
2012,08,17,13,00,26.60
2012,08,17,13,01,26.50
2012,08,17,13,02,26.40
2012,08,17,13,03,26.50
2012,08,17,13,04,26.50
2012,08,17,13,05,26.40
2012,08,17,13,06,26.40
2012,08,17,13,07,26.40
2012,08,17,13,08,26.40
2012,08,17,13,09,26.40
2012,08,17,13,10,26.40
2012,08,17,13,11,26.40
2012,08,17,13,12,26.50
2012,08,17,13,13,26.40
2012,08,17,13,14,26.40
2012,08,17,13,15,26.40
2012,08,17,13,16,26.40
2012,08,17,13,17,26.40
2012,08,17,13,18,26.30
2012,08,17,13,19,26.30
2012,08,17,13,20,26.20
2012,08,17,13,21,26.10
2012,08,17,13,22,26.10
2012,08,17,13,23,26.10
2012,08,17,13,24,26.10
2012,08,17,13,25,26.10
2012,08,17,13,26,26.10
2012,08,17,13,27,26.30
2012,08,17,13,28,26.30
2012,08,17,13,29,26.30
2012,08,17,13,30,26.30
2012,08,17,13,31,26.30
2012,08,17,13,32,26.10
2012,08,17,13,33,26.00
2012,08,17,13,34,25.90
2012,08,17,13,35,25.90
2012,08,17,13,36,25.90
2012,08,17,13,37,25.90
2012,08,17,13,38,25.90
2012,08,17,13,39,25.90
2012,08,17,13,40,25.90
2012,08,17,13,41,26.00
2012,08,17,13,42,26.10
2012,08,17,13,43,26.30
2012,08,17,13,44,26.40
2012,08,17,13,45,26.40
2012,08,17,13,46,26.40
2012,08,17,13,47,26.40
2012,08,17,13,48,26.40
2012,08,17,13,49,26.30
2012,08,17,13,50,26.30
2012,08,17,13,51,26.30
2012,08,17,13,52,26.30
2012,08,17,13,53,26.20
2012,08,17,13,54,26.20
2012,08,17,13,55,26.20
2012,08,17,13,56,26.20
2012,08,17,13,57,26.20
2012,08,17,13,58,26.30
2012,08,17,13,59,26.30
2012,08,17,14,00,26.30
2012,08,17,14,01,26.30
2012,08,17,14,02,26.30
2012,08,17,14,03,26.30
2012,08,17,14,04,26.20
2012,08,17,14,05,26.20
2012,08,17,14,06,26.20
2012,08,17,14,07,26.10
2012,08,17,14,08,25.90
2012,08,17,14,09,25.90
2012,08,17,14,10,25.90
2012,08,17,14,11,25.90
2012,08,17,14,12,25.90
2012,08,17,14,13,25.90
2012,08,17,14,14,25.90
2012,08,17,14,15,25.90
2012,08,17,14,16,25.90
2012,08,17,14,17,25.90
2012,08,17,14,18,25.80
2012,08,17,14,19,25.80
2012,08,17,14,20,25.90
2012,08,17,14,21,25.90
2012,08,17,14,22,25.90
2012,08,17,14,23,25.90
2012,08,17,14,24,25.90
2012,08,17,14,25,25.90
2012,08,17,14,26,25.90
2012,08,17,14,27,25.90
2012,08,17,14,28,25.90
2012,08,17,14,29,25.90
2012,08,17,14,30,25.90
2012,08,17,14,31,25.80
2012,08,17,14,32,25.70
2012,08,17,14,33,25.70
2012,08,17,14,34,25.70
2012,08,17,14,35,25.70
2012,08,17,14,36,25.70
2012,08,17,14,37,25.70
2012,08,17,14,38,25.70
2012,08,17,14,39,25.70
2012,08,17,14,40,25.70
2012,08,17,14,41,25.70
2012,08,17,14,42,25.70
2012,08,17,14,43,25.60
2012,08,17,14,44,25.60
2012,08,17,14,45,25.60
2012,08,17,14,46,25.60
2012,08,17,14,47,25.60
2012,08,17,14,48,25.60
2012,08,17,14,49,25.60
2012,08,17,14,50,25.70
2012,08,17,14,51,25.70
2012,08,17,14,52,25.70
2012,08,17,14,53,25.70
2012,08,17,14,54,25.70
2012,08,17,14,55,25.80
2012,08,17,14,56,25.80
2012,08,17,14,57,25.80
2012,08,17,14,58,25.80
2012,08,17,14,59,25.80
2012,08,17,15,00,25.80
2012,08,17,15,01,25.80
2012,08,17,15,02,25.80
2012,08,17,15,03,25.90
2012,08,17,15,04,25.90
2012,08,17,15,05,25.90
2012,08,17,15,06,25.90
2012,08,17,15,07,26.00
2012,08,17,15,08,26.10
2012,08,17,15,09,26.00
2012,08,17,15,10,26.00
2012,08,17,15,11,25.90
2012,08,17,15,12,25.90
2012,08,17,15,13,26.00
2012,08,17,15,14,26.10
2012,08,17,15,15,26.10
2012,08,17,15,16,26.20
2012,08,17,15,17,26.20
2012,08,17,15,18,26.20
2012,08,17,15,19,26.10
2012,08,17,15,20,26.00
2012,08,17,15,21,25.90
2012,08,17,15,22,25.90
2012,08,17,15,23,25.90
2012,08,17,15,24,25.80
2012,08,17,15,25,25.80
2012,08,17,15,26,25.70
2012,08,17,15,27,25.70
2012,08,17,15,28,25.60
2012,08,17,15,29,25.50
2012,08,17,15,30,25.50
2012,08,17,15,31,25.40
2012,08,17,15,32,25.50
2012,08,17,15,33,25.50
2012,08,17,15,34,25.60
2012,08,17,15,35,25.70
2012,08,17,15,36,25.70
2012,08,17,15,37,25.80
2012,08,17,15,38,25.80
2012,08,17,15,39,25.90
2012,08,17,15,40,25.90
2012,08,17,15,41,26.00
2012,08,17,15,42,26.00
2012,08,17,15,43,26.10
2012,08,17,15,44,26.10
2012,08,17,15,45,26.20
2012,08,17,15,46,26.30
2012,08,17,15,47,26.40
2012,08,17,15,48,26.40
2012,08,17,15,49,26.40
2012,08,17,15,50,26.40
2012,08,17,15,51,26.40
2012,08,17,15,52,26.40
2012,08,17,15,53,26.50
2012,08,17,15,54,26.60
2012,08,17,15,55,26.70
2012,08,17,15,56,26.80
2012,08,17,15,57,26.80
2012,08,17,15,58,26.90
2012,08,17,15,59,26.90
2012,08,17,16,00,26.90
2012,08,17,16,01,27.00
2012,08,17,16,02,27.00
2012,08,17,16,03,27.10
2012,08,17,16,04,27.10
2012,08,17,16,05,27.10
2012,08,17,16,06,27.00
2012,08,17,16,07,27.00
2012,08,17,16,08,26.90
2012,08,17,16,09,26.80
2012,08,17,16,10,26.80
2012,08,17,16,11,26.80
2012,08,17,16,12,26.80
2012,08,17,16,13,26.90
2012,08,17,16,14,26.90
2012,08,17,16,15,26.90
2012,08,17,16,16,26.90
2012,08,17,16,17,26.90
2012,08,17,16,18,26.90
2012,08,17,16,19,26.90
2012,08,17,16,20,26.90
2012,08,17,16,21,26.80
2012,08,17,16,22,26.90
2012,08,17,16,23,26.90
2012,08,17,16,24,26.90
2012,08,17,16,25,26.90
2012,08,17,16,26,26.90
2012,08,17,16,27,27.00
2012,08,17,16,28,27.10
2012,08,17,16,29,27.10
2012,08,17,16,30,27.10
2012,08,17,16,31,27.10
2012,08,17,16,32,27.00
2012,08,17,16,33,26.90
2012,08,17,16,34,26.90
2012,08,17,16,35,26.90
2012,08,17,16,36,26.90
2012,08,17,16,37,27.00
2012,08,17,16,38,26.90
2012,08,17,16,39,26.90
2012,08,17,16,40,26.80
2012,08,17,16,41,26.80
2012,08,17,16,42,26.80
2012,08,17,16,43,26.80
2012,08,17,16,44,26.80
2012,08,17,16,45,26.90
2012,08,17,16,46,26.90
2012,08,17,16,47,26.90
2012,08,17,16,48,27.00
2012,08,17,16,49,27.00
2012,08,17,16,50,27.00
2012,08,17,16,51,27.00
2012,08,17,16,52,26.90
2012,08,17,16,53,26.90
2012,08,17,16,54,27.00
2012,08,17,16,55,27.00
2012,08,17,16,56,26.90
2012,08,17,16,57,26.90
2012,08,17,16,58,26.80
2012,08,17,16,59,26.80
2012,08,17,17,00,26.80
2012,08,17,17,01,26.80
2012,08,17,17,02,26.70
2012,08,17,17,03,26.70
2012,08,17,17,04,26.70
2012,08,17,17,05,26.70
2012,08,17,17,06,26.60
2012,08,17,17,07,26.60
2012,08,17,17,08,26.50
2012,08,17,17,09,26.50
2012,08,17,17,10,26.50
2012,08,17,17,11,26.50
2012,08,17,17,12,26.50
2012,08,17,17,13,26.50
2012,08,17,17,14,26.50
2012,08,17,17,15,26.50
2012,08,17,17,16,26.50
2012,08,17,17,17,26.50
2012,08,17,17,18,26.40
2012,08,17,17,19,26.40